Regional Weather Roundup
Issued by NWS Jackson, KY

Home | Current Version | Previous Version | Text Only | Print | Product List | Glossary Off
Versions: 1 2 3 4 5 6 7 8 9 10 11 12 13 14 15 16 17 18 19 20 21 22 23 24 25 26 27 28 29 30 31 32 33 34 35 36 37 38 39 40 41 42 43 44 45 46 47 48 49 50

000
ASUS43 KJKL 272310
RWRJKL

EAST KENTUCKY HOURLY WEATHER ROUNDUP
NATIONAL WEATHER SERVICE JACKSON KY
700 PM EDT FRI MAR 27 2015

NOTE: "FAIR" INDICATES FEW OR NO CLOUDS BELOW 12,000 FEET WITH
NO SIGNIFICANT WEATHER AND/OR OBSTRUCTIONS TO VISIBILITY.

* THESE REPORTS ARE NOT UNDER NWS QUALITY CONTROL AND MAY NOT
  REPORT WEATHER SUCH AS PRECIPITATION AND FOG.

KYZ079-080-083-085-087-088-110-112-115-119-120-280000
...EASTERN KENTUCKY...

CITY           SKY/WX    TMP DP  RH WIND       PRES   REMARKS
JACKSON        CLOUDY    36  22  56 VRB7G16   29.94R WCI  30
LONDON         CLOUDY    39  24  55 N16       29.96R WCI  30
SOMERSET*      CLOUDY    36  28  75 N10       30.01R WCI  28
MONTICELLO*    CLOUDY    39  29  68 NW12      30.02R WCI  32
MIDDLESBORO*   DRIZZLE   41  29  63 N14       29.94R
HAZARD APT*    CLOUDY    39  25  56 NW6       29.94R WCI  35
BLACK MTN*       N/A     27  27 100 NE10        N/A  WCI  17
PIKEVILLE APT* CLOUDY    36  28  75 NW13G18   29.90R WCI  27
BIG SANDY*     CLOUDY    38  25  60 NW8G17    29.92R WCI  32
MOREHEAD APT*  MIX PCPN  34  23  64 NW12      30.01R WCI  25
$$

KYZ035-036-041-042-044-050-067-078-099-280000
...CENTRAL KENTUCKY...

CITY           SKY/WX    TMP DP  RH WIND       PRES   REMARKS
MT STERLING*   CLOUDY    34  23  64 N13G18    30.01R WCI  25
FLEMING/MASON* CLOUDY    32  19  59 NW13G23   30.02R WCI  22
DANVILLE*      CLOUDY    34  27  75 N13G21    30.02R WCI  25
RICHMOND*      CLOUDY    36  23  60 NW10      29.98R WCI  28
LEXINGTON      CLOUDY    34  23  64 N15G23    30.01R WCI  24
FRANKFORT      CLOUDY    34  23  64 N10       30.02R WCI  26
$$

KYZ091>093-OHZ055-061-077-WVZ005-015-034-035-042-280000
...SOUTHERN OHIO/WEST VIRGINIA...

CITY           SKY/WX    TMP DP  RH WIND       PRES   REMARKS
COVINGTON      CLOUDY    32  16  51 NW13      30.03R WCI  22
COLUMBUS       CLOUDY    28  12  51 NW15G22   30.01R WCI  16
DAYTON         CLOUDY    29  14  53 N16       30.04R WCI  17
WILMINGTON     CLOUDY    28  12  51 NW17G24   30.01R WCI  16
HUNTINGTON     CLOUDY    35  23  61 N15G21    29.95R WCI  25
CHARLESTON     CLOUDY    37  21  52 NW13G21   29.91R WCI  29
PINEVILLE*     CLOUDY    43  26  52 MISG      29.88R
BECKLEY        CLOUDY    36  21  54 NW12      29.80R WCI  28
BLUEFIELD      CLOUDY    38  21  50 NW10G20   29.79R WCI  31
$$

VAZ002-007-008-TNZ017-027-036-066-071-280000
...SOUTHWEST VIRGINIA/EAST TENNESSEE...

CITY           SKY/WX    TMP DP  RH WIND       PRES   REMARKS
WISE*          CLOUDY    36  27  69 NW9G16    29.84R WCI  29
JONESVILLE*    CLOUDY    39  30  70 NW10G16   29.92R WCI  32
ABINGDON*      CLOUDY    42  24  47 N7        29.82R
BRISTOL        CLOUDY    44  25  47 NW12      29.84R
KNOXVILLE      CLOUDY    46  26  45 NW12G18   29.90R
OAK RIDGE      CLOUDY    44  32  62 NW3       29.94R
CROSSVILLE     CLOUDY    40  27  59 NW12      29.93R WCI  33
NASHVILLE      CLOUDY    41  32  70 N8G21     30.04R
$$

...KEY TO REMARKS...
VSB - VISIBILITY IN MILES
WCI - WIND CHILL INDEX
HX  - HEAT INDEX

$$



USA.gov is the U.S. government's official web portal to all federal, state and local government web resources and services.